GFSFLT1_700_spd_114.txt.gz
Wind_Speed
26 28 34 36 33 29 32 32 35 38 37 36 37 36 36 34 37 40 41 42 41 41 41 38 37 35 32 34 32 26 27 25
27 31 30 31 30 28 27 30 34 36 37 37 41 42 40 40 42 39 40 44 45 43 42 45 40 40 36 35 35 33 30 29
26 32 37 34 27 24 27 30 31 33 37 39 39 39 42 46 48 48 46 45 47 51 47 49 47 45 42 40 39 37 36 33
22 26 32 23 22 22 25 28 29 31 34 36 40 42 44 45 45 46 47 52 53 56 51 52 51 50 49 46 43 40 38 39
20 25 22 17 24 24 25 27 29 30 31 33 36 39 43 46 47 51 52 46 50 53 55 56 55 52 51 49 47 45 42 42
23 18 17 22 27 28 28 28 30 32 34 36 38 39 40 42 47 51 52 55 57 53 57 53 59 60 56 51 52 50 48 44
14 16 23 28 26 27 30 31 33 35 37 40 42 45 46 47 46 47 51 54 57 60 53 55 53 54 54 54 52 51 51 48
14 20 23 23 26 28 29 31 32 35 38 40 43 47 49 52 53 53 51 51 55 58 57 52 55 52 52 52 48 50 51 53
18 22 23 25 27 28 30 33 36 36 39 42 44 45 48 52 54 55 56 54 55 57 59 60 54 52 53 52 47 46 53 54
21 25 31 32 34 36 41 44 44 41 41 42 44 45 48 50 51 52 54 57 60 59 57 58 58 49 54 57 52 48 54 53
22 29 35 39 42 44 41 41 40 39 40 42 42 44 47 47 47 46 49 54 55 57 53 50 50 53 55 57 52 49 51 52
26 30 34 33 34 35 35 37 38 39 41 38 41 41 42 42 37 36 35 36 42 49 47 48 48 50 51 52 49 48 49 49
28 36 35 33 33 31 34 35 37 35 36 36 34 37 29 29 34 29 29 28 30 40 44 46 47 47 47 45 47 47 46 46
43 38 33 32 31 33 34 35 31 32 32 29 28 27 24 23 25 29 32 32 32 38 44 46 47 47 45 41 42 43 43 42
35 29 28 29 30 34 35 33 30 28 28 27 23 25 27 22 24 29 33 42 39 49 44 45 44 41 42 37 42 42 44 41
27 24 24 24 27 27 26 26 22 19 16 16 15 18 16 17 19 27 31 14 27 22 46 33 37 37 39 34 35 44 49 46
22 21 20 21 19 18 19 15 12 11 12 13 12 13 10 13 17 18 19 9 13 16 20 34 34 40 28 28 32 34 38 42
16 14 13 11 11 12 17 18 15 12 13 11 8 7 7 7 12 18 14 20 9 16 16 20 25 29 31 34 35 35 36 39
10 7 5 6 9 13 19 24 25 25 22 20 20 17 14 12 13 18 7 12 17 12 21 17 21 22 21 24 32 36 36 38

GFSFLT1_700_spd_117.txt.gz
Wind_Speed
27 29 33 36 35 38 38 37 38 38 36 34 32 33 33 35 34 35 36 37 38 39 39 37 35 37 36 33 31 29 27 26
33 36 39 39 34 36 37 34 32 34 35 32 32 35 37 37 38 38 37 38 37 41 44 43 40 41 39 38 34 32 30 29
34 37 40 36 36 36 34 37 32 29 30 32 33 33 35 38 41 42 42 42 44 43 44 46 44 48 44 41 39 35 33 33
40 46 43 37 35 32 34 32 27 27 27 30 33 34 35 37 39 42 44 45 47 46 47 49 48 51 50 44 40 38 37 36
41 46 39 28 23 22 28 26 25 27 28 30 32 34 36 37 39 41 43 45 48 50 52 53 49 51 49 52 47 43 42 40
39 36 29 21 18 23 25 27 28 29 30 32 33 35 37 38 39 42 43 44 47 49 51 53 55 55 57 52 46 42 46 44
28 22 18 23 23 23 29 27 28 31 33 35 37 39 39 41 41 43 43 44 47 50 53 55 55 54 51 52 54 52 49 48
11 14 15 18 23 27 27 30 31 32 33 35 37 39 40 42 43 44 46 47 48 50 52 56 58 57 55 49 50 48 49 47
8 10 18 21 21 26 32 34 37 38 40 44 45 44 43 42 44 47 48 49 49 51 54 56 57 61 60 54 47 46 45 42
9 17 16 21 26 32 36 39 40 42 45 43 41 40 41 43 44 44 46 49 51 51 52 58 60 60 61 59 54 48 48 44
12 17 26 30 33 38 40 39 40 40 40 39 37 37 39 42 44 47 48 49 48 48 48 53 59 63 63 58 52 55 59 48
21 25 27 32 44 44 42 41 41 41 40 38 37 37 39 39 42 44 46 44 41 36 39 46 57 61 64 58 52 51 52 50
28 31 38 46 43 39 38 39 39 41 40 38 38 37 34 33 30 32 31 30 32 33 30 31 40 53 60 55 48 51 50 52
35 40 44 41 37 34 35 35 39 37 35 35 36 33 27 26 25 29 27 32 29 30 29 31 32 41 50 45 45 48 50 46
39 38 37 35 32 32 32 33 33 32 30 29 29 26 21 21 22 19 27 30 35 34 39 38 32 38 46 47 46 45 43 40
34 36 32 27 27 26 25 26 26 24 22 22 20 18 19 22 20 22 26 27 28 39 28 29 42 45 45 47 45 43 38 36
32 28 22 20 17 17 20 19 18 15 15 13 11 11 10 10 14 18 21 18 19 14 19 22 21 42 46 43 39 43 39 38
22 18 16 12 10 11 13 17 18 18 16 17 17 16 15 11 10 15 16 10 12 18 12 13 11 23 45 42 39 38 32 33
14 11 7 3 5 8 11 14 19 23 26 30 31 31 29 25 21 17 16 18 8 14 12 3 15 12 6 18 26 23 27 30

GFSFLT1_700_spd_120.txt.gz
Wind_Speed
29 32 33 35 34 30 39 37 35 34 32 35 39 40 39 38 39 37 38 37 27 53 42 41 36 38 38 37 36 35 31 27
35 33 38 38 39 35 32 33 38 40 38 38 39 39 37 37 38 39 37 36 35 36 40 48 40 38 41 41 40 38 36 31
38 40 39 45 45 44 41 40 41 38 39 41 41 38 36 37 39 40 42 41 39 40 40 42 46 49 48 46 46 42 40 38
42 40 40 46 47 44 41 40 36 36 38 40 39 37 35 34 36 39 42 44 45 45 45 46 44 44 47 49 45 44 48 40
40 45 46 46 38 34 32 32 32 32 35 34 36 36 34 34 35 36 37 42 45 47 47 48 49 48 49 44 44 45 46 53
33 40 43 33 19 19 22 23 26 30 34 36 36 36 37 37 36 38 39 39 40 44 47 49 51 51 50 51 49 50 46 45
33 32 19 14 13 14 18 21 27 29 32 35 37 38 38 39 40 42 41 41 41 42 45 48 50 52 53 51 50 52 51 48
27 23 16 7 7 10 17 22 26 30 33 37 40 42 42 43 43 43 44 44 44 44 46 48 51 52 54 55 54 53 53 51
19 9 4 8 12 17 19 23 29 34 35 37 39 42 44 45 45 45 45 45 45 45 47 50 52 54 54 54 58 57 53 50
5 5 11 15 16 20 26 30 35 38 39 40 40 41 42 44 44 43 44 43 43 44 45 47 51 55 57 57 59 60 57 53
10 14 22 24 26 31 34 38 40 40 40 41 41 42 43 42 42 42 42 43 43 44 45 46 49 54 57 60 61 65 62 56
18 21 25 32 38 38 38 37 38 38 39 40 42 42 41 40 39 40 41 42 42 44 44 45 48 52 55 59 61 62 66 59
21 26 32 38 40 41 38 36 37 39 40 41 40 37 36 37 38 39 41 41 39 39 35 36 41 43 43 48 54 59 62 61
25 31 36 36 34 34 34 34 35 37 39 38 35 34 33 34 34 33 33 35 33 33 33 36 33 35 38 40 45 52 61 58
28 33 36 34 33 31 30 32 33 33 33 31 29 28 28 28 28 27 28 30 30 34 38 40 37 35 41 39 35 39 47 50
30 35 37 33 27 25 26 27 28 26 22 21 21 22 20 20 21 26 25 25 24 27 25 28 34 39 40 36 34 30 37 44
35 38 34 26 21 19 17 18 16 17 18 18 18 16 13 12 11 12 12 16 18 22 23 24 22 25 35 34 32 32 39 43
33 27 23 17 12 11 9 11 17 19 20 22 25 25 25 26 24 21 20 21 16 11 16 16 16 17 23 18 39 37 39 40
23 16 13 9 5 5 8 10 12 13 16 19 23 26 29 31 32 33 31 28 27 26 15 14 11 13 12 15 25 35 32 44

GFSFLT1_700_spd_123.txt.gz
Wind_Speed
30 32 34 34 33 39 34 31 25 30 34 31 31 32 33 35 39 41 43 38 40 46 51 58 75 71 41 41 40 39 39 37
30 36 36 37 35 40 38 34 32 29 35 35 33 36 37 38 41 43 44 40 43 46 46 45 30 45 51 41 39 40 42 42
33 33 39 37 36 39 41 38 38 37 37 38 36 36 39 41 46 42 41 43 45 45 46 39 37 41 61 60 55 52 51 47
29 36 37 41 39 42 41 40 43 43 44 43 41 40 40 41 39 39 39 42 44 46 46 43 40 38 42 45 54 54 56 54
30 36 38 39 40 40 34 33 36 40 42 42 42 40 41 41 39 38 38 38 41 46 46 47 46 46 48 47 46 44 52 51
33 36 38 39 37 41 41 32 30 33 36 37 37 38 42 44 40 41 40 39 37 40 45 47 48 49 50 50 51 49 50 48
34 32 29 27 25 22 23 23 21 24 25 27 32 40 42 43 42 41 41 41 40 38 41 46 48 48 49 51 53 52 50 49
28 28 23 19 21 19 17 18 20 20 22 26 31 34 40 42 44 44 43 43 43 43 43 44 46 48 50 50 51 53 53 52
16 19 18 16 16 13 13 16 22 24 27 31 34 37 40 44 46 46 46 45 44 43 44 44 45 47 49 51 52 52 52 52
19 12 13 16 23 22 22 28 33 33 31 34 36 38 41 43 45 47 47 47 46 44 43 44 44 45 48 50 52 54 54 55
7 13 16 23 29 33 33 33 34 31 36 41 41 40 42 44 45 46 46 46 46 46 45 45 45 46 47 49 52 54 56 57
13 18 22 27 34 38 38 36 36 34 34 36 38 41 43 43 43 43 43 43 44 45 46 46 46 47 47 48 51 53 56 57
20 19 23 30 35 38 36 35 35 35 35 36 37 37 38 38 39 40 41 41 42 43 43 43 44 44 43 46 48 50 53 55
20 22 26 32 37 37 33 32 33 32 33 34 34 33 32 33 34 36 37 38 38 38 40 40 40 41 39 39 44 44 45 46
17 23 27 32 36 30 27 27 28 27 27 26 25 25 24 23 24 25 28 29 30 33 34 32 32 38 44 42 41 37 38 41
20 23 26 29 28 23 20 19 18 20 19 16 14 15 17 17 16 16 17 18 21 27 30 30 29 27 28 30 33 36 32 40
23 23 22 23 18 14 13 12 13 16 17 17 21 24 23 22 21 19 19 20 19 20 21 22 22 22 22 18 17 26 32 27
21 20 19 15 12 9 8 9 11 12 13 16 19 23 27 30 32 29 25 24 23 19 12 10 10 13 14 15 19 25 18 18
21 18 14 13 10 8 8 7 7 10 14 18 19 23 25 26 28 30 33 31 27 28 29 23 17 14 14 10 6 12 22 20

GFSFLT1_700_spd_129.txt.gz
Wind_Speed
32 33 31 29 29 26 22 24 26 28 26 25 24 26 23 21 21 22 23 24 26 25 25 28 30 33 37 34 40 47 41 43
23 26 28 27 25 25 24 24 25 28 29 28 27 27 29 28 26 27 27 27 28 29 31 30 28 30 33 31 37 40 41 42
19 22 24 26 24 24 25 26 27 28 29 30 30 29 31 34 34 34 34 34 34 35 35 34 33 32 31 35 37 40 41 41
16 19 22 24 25 25 27 28 29 30 31 32 31 32 34 37 38 39 40 41 40 40 37 37 38 38 34 34 36 39 42 43
19 23 23 25 26 26 28 29 30 32 34 36 36 35 36 38 37 39 41 45 45 43 41 41 43 42 40 38 38 38 39 40
16 16 19 22 22 27 28 32 33 35 35 33 34 34 38 40 41 43 40 43 43 44 46 47 45 44 43 42 44 42 40 39
12 17 14 19 12 16 19 26 33 38 39 39 39 42 43 43 43 47 45 44 43 44 46 49 49 45 45 44 45 48 45 42
11 11 13 14 8 9 14 19 22 19 25 35 40 42 45 43 42 45 43 41 42 44 46 51 50 48 46 46 46 48 49 46
4 5 9 8 9 13 18 19 23 25 26 24 27 30 33 44 46 41 43 45 43 47 50 50 49 50 49 49 48 48 50 51
6 10 13 11 12 16 20 24 27 31 29 27 26 28 31 33 35 45 47 46 46 47 50 52 53 50 50 50 50 50 50 52
10 12 15 16 18 22 24 28 32 32 30 28 29 30 32 33 32 34 37 47 52 53 49 50 49 49 46 46 48 49 49 51
14 16 16 18 20 22 26 31 35 34 32 29 28 30 30 30 29 29 30 33 36 38 40 41 41 41 41 43 47 47 48 50
18 18 19 21 22 23 26 29 33 33 29 27 28 27 27 26 24 24 25 26 30 32 34 36 37 39 41 43 45 47 46 48
20 23 23 24 23 25 27 29 31 26 23 23 22 21 20 18 18 18 19 21 23 25 28 30 34 37 37 40 41 42 44 45
24 25 26 25 24 27 28 30 27 22 20 18 16 16 19 21 22 23 24 25 27 27 24 23 26 28 29 30 32 35 35 37
25 26 28 25 27 29 29 28 22 19 17 13 11 13 19 23 24 26 28 30 31 34 33 26 25 20 18 17 23 28 31 32
24 24 26 26 29 30 27 23 19 14 9 7 13 17 19 21 23 24 26 28 29 33 36 37 31 24 20 17 16 14 19 21
23 25 26 28 29 27 22 19 16 8 5 9 8 9 10 12 17 20 21 22 25 27 32 34 38 38 34 31 25 19 9 12
23 25 27 28 24 20 17 16 14 2 5 5 5 8 11 15 18 20 22 23 25 25 28 31 33 34 36 37 34 27 22 12

GFSFLT1_700_spd_132.txt.gz
Wind_Speed
23 22 20 19 17 15 16 20 25 27 28 29 32 31 29 28 25 22 22 23 24 25 25 25 25 24 27 30 33 37 42 36
20 22 22 22 20 19 18 17 19 21 24 26 29 31 31 31 29 27 25 26 28 29 30 29 29 29 29 29 29 31 38 38
16 17 17 18 19 20 19 19 21 22 24 25 27 29 31 32 32 32 30 31 34 36 35 35 35 34 33 31 32 33 34 37
11 14 18 20 21 22 21 21 23 24 25 27 29 31 33 35 35 35 35 36 37 39 40 40 40 41 39 38 37 37 35 36
15 17 16 15 16 18 19 19 21 24 27 30 33 34 34 37 39 39 39 39 39 39 41 42 42 44 43 41 41 41 40 38
12 8 11 8 12 13 12 14 17 19 23 27 32 33 35 36 37 39 39 40 43 45 46 45 46 48 48 45 43 44 44 43
11 10 9 9 12 12 7 9 15 16 18 19 21 29 36 39 40 41 42 45 48 48 47 48 50 52 52 48 46 46 45 46
11 8 7 12 12 12 13 16 19 23 26 27 27 27 26 27 31 37 43 46 49 50 52 47 47 50 51 48 48 48 47 50
11 9 10 12 13 15 16 19 23 26 29 31 31 31 29 31 34 34 37 40 40 43 51 49 53 50 49 50 52 51 50 51
14 12 12 13 15 17 19 23 25 28 31 32 31 30 30 30 33 35 38 39 40 43 44 53 53 52 51 53 57 58 58 59
17 16 14 16 18 19 21 23 26 30 34 33 31 30 29 30 30 31 32 33 34 36 40 42 49 56 60 62 62 63 61 60
19 19 18 19 21 22 23 25 28 30 33 32 29 28 27 26 25 23 22 22 23 25 27 31 37 42 47 51 54 52 52 53
18 18 23 24 24 25 26 27 29 31 33 29 24 23 22 20 18 15 13 15 17 19 20 23 26 30 34 40 45 49 51 52
26 25 23 25 28 27 28 29 31 33 31 25 22 18 16 14 12 12 16 21 25 29 30 25 22 22 24 30 36 39 45 48
28 23 25 29 29 28 28 29 32 31 25 21 17 13 10 11 14 15 17 22 25 29 34 38 37 31 26 23 25 30 34 39
27 27 26 28 28 28 27 30 29 24 20 17 11 6 6 9 12 15 17 20 23 28 31 36 38 40 35 29 24 20 23 28
24 23 25 27 26 27 28 28 24 19 16 12 4 5 6 7 9 11 15 18 21 24 26 28 33 41 42 42 36 33 25 17
23 21 24 24 26 28 28 24 19 15 12 5 4 6 4 6 8 11 14 17 20 23 23 24 26 28 33 39 40 36 33 24
22 22 23 24 26 26 22 19 15 12 6 1 6 4 3 6 9 11 14 16 18 21 22 23 25 26 27 28 32 39 36 34

GFSFLT1_700_spd_135.txt.gz
Wind_Speed
23 19 17 18 18 18 19 20 22 26 30 31 32 32 33 35 35 32 29 27 26 28 29 28 27 28 30 31 27 28 28 30
20 18 17 16 16 16 17 19 20 24 27 30 32 33 34 34 36 35 35 31 30 29 30 31 31 32 33 33 34 32 31 30
19 19 18 17 17 18 18 19 21 22 24 27 30 31 33 34 34 35 35 34 33 33 34 35 37 37 36 37 37 35 36 34
18 16 16 19 19 18 18 19 21 21 23 25 27 30 33 36 36 37 36 37 37 38 38 39 39 41 43 42 40 41 40 38
16 16 18 16 15 14 15 14 14 16 17 18 23 28 33 37 39 40 40 41 42 43 44 43 43 42 43 44 45 44 43 42
16 17 15 15 15 16 15 16 17 17 18 19 20 21 21 25 36 40 40 43 42 43 45 45 46 46 47 47 48 48 47 47
17 17 17 14 14 16 16 16 18 19 21 23 24 26 27 28 29 29 31 38 41 44 48 48 50 52 51 51 52 51 53 52
17 18 18 16 15 17 17 18 19 21 24 28 30 32 33 34 34 32 33 34 36 37 41 41 43 49 53 53 53 55 53 53
18 20 19 17 17 19 19 21 23 25 27 29 31 32 32 31 32 33 34 35 37 39 40 43 45 47 47 52 57 53 51 49
21 22 21 20 20 19 20 22 24 25 28 32 34 35 34 33 31 32 31 32 35 35 38 40 43 44 46 48 49 54 55 54
21 23 24 24 23 22 23 23 24 27 30 33 36 36 34 31 29 27 27 25 26 27 30 33 36 40 43 45 47 47 52 56
19 27 27 27 27 25 25 25 26 29 32 34 37 35 28 25 24 21 19 15 13 15 17 20 25 29 33 37 40 43 47 52
21 26 27 27 27 28 28 28 28 30 32 34 36 30 23 20 17 13 9 8 11 15 19 24 25 22 21 24 29 35 40 45
22 23 26 29 31 31 29 28 30 31 31 34 30 24 19 16 13 11 10 8 11 15 20 25 28 31 33 29 25 25 29 34
24 25 28 28 27 28 28 28 28 28 31 31 24 20 16 12 9 7 6 7 10 13 16 21 24 30 36 38 41 36 29 26
25 29 28 29 29 26 27 25 27 28 30 25 19 16 13 10 11 10 8 8 11 14 18 21 24 26 30 38 43 46 45 37
29 28 29 27 22 24 26 26 26 29 24 19 16 13 9 12 10 8 8 9 11 15 18 21 23 25 27 28 32 38 42 46
28 28 26 24 23 24 24 25 27 24 17 14 13 10 9 9 8 6 7 9 12 15 17 19 21 24 25 27 28 28 31 38
24 25 23 23 23 23 24 25 22 17 12 11 9 8 8 6 8 6 7 9 11 13 16 18 19 21 23 23 24 25 26 26

GFSFLT1_700_spd_138.txt.gz
Wind_Speed
31 23 21 22 22 22 22 22 23 25 27 28 29 29 31 35 36 34 34 34 32 32 32 32 32 33 35 34 32 30 28 27
27 20 19 19 20 21 20 19 21 23 25 27 30 31 32 36 36 37 36 37 37 36 35 35 34 33 34 36 34 32 30 30
26 18 17 18 17 17 18 18 18 20 21 23 28 30 33 36 37 40 37 40 40 39 38 38 38 37 37 39 40 37 34 34
20 19 17 17 18 17 15 15 16 17 19 21 23 26 29 32 36 40 40 43 41 43 44 44 41 42 42 43 44 45 39 36
21 22 20 19 17 16 18 18 18 17 17 18 19 19 20 22 24 28 35 41 44 46 49 48 47 47 47 47 46 47 48 40
22 21 20 20 18 17 16 17 19 19 19 20 21 22 25 27 29 30 31 32 31 35 44 47 49 51 52 54 53 51 50 49
21 19 20 20 19 18 18 21 21 20 21 22 24 27 29 31 32 33 35 36 36 35 36 37 39 44 49 52 53 54 55 57
18 19 22 21 20 20 20 22 21 22 23 25 27 29 31 33 33 34 34 34 35 35 36 38 39 41 42 43 45 46 48 52
16 19 22 22 23 22 22 23 23 24 26 27 29 31 33 35 36 35 34 33 33 33 33 37 39 40 42 43 46 48 49 50
17 17 18 22 23 24 25 25 25 27 28 29 31 33 36 38 36 33 31 29 27 27 28 30 32 32 35 37 40 42 46 48
19 16 15 20 25 26 27 27 27 28 29 30 32 34 37 38 33 28 26 23 20 19 18 19 20 22 24 27 30 33 37 40
23 16 16 20 25 29 27 29 30 31 30 30 32 34 36 34 27 23 21 17 14 12 12 14 17 20 22 21 21 23 26 31
23 19 18 22 26 29 29 30 30 30 30 30 31 32 34 28 23 19 18 15 11 9 10 14 17 22 25 27 29 30 28 24
27 22 21 21 23 27 29 30 27 24 27 29 29 31 29 24 19 16 15 12 11 11 11 12 13 16 20 26 31 35 40 40
29 21 23 23 25 27 28 27 27 25 25 26 27 28 24 21 18 15 14 12 15 12 11 11 13 16 18 21 26 30 36 43
29 25 32 27 25 25 25 27 23 24 24 25 27 24 20 17 15 14 13 12 11 9 9 10 12 14 17 21 25 27 29 35
28 36 30 24 23 24 23 20 23 23 23 24 22 19 17 14 13 13 12 10 9 8 9 10 12 15 19 22 24 26 28 29
35 33 27 24 24 21 20 22 22 22 22 20 17 16 14 13 12 10 11 9 8 9 10 13 15 17 20 21 23 24 25 26
30 26 23 24 24 21 20 20 21 20 19 17 14 13 12 10 9 10 10 8 8 10 11 13 15 17 19 20 21 22 22 23

GFSFLT1_700_spd_141.txt.gz
Wind_Speed
35 37 38 34 29 23 21 23 23 24 26 27 28 27 31 29 31 31 32 32 34 34 36 36 35 35 35 35 34 33 33 27
35 37 35 34 26 21 18 19 20 21 22 25 27 29 30 30 32 29 33 32 35 37 37 36 37 38 38 37 36 33 32 32
39 33 37 28 22 19 17 17 18 18 18 20 24 26 28 30 32 32 34 35 38 40 40 39 39 39 41 41 40 36 35 34
39 38 34 24 19 18 17 15 16 18 18 18 20 21 22 24 26 28 30 32 35 38 40 42 43 43 44 46 46 44 40 35
45 38 31 20 19 18 16 15 16 17 19 19 20 22 23 24 26 29 31 32 35 36 36 37 37 41 45 47 49 50 49 45
40 35 26 19 18 19 17 17 17 19 22 22 23 24 26 27 29 30 32 33 35 36 37 38 39 40 40 41 44 49 52 51
32 25 24 18 16 18 17 18 20 20 21 23 24 25 27 29 31 33 35 35 36 36 36 37 37 38 39 40 40 42 44 48
27 21 20 15 16 18 19 20 22 23 23 24 26 28 29 31 34 35 36 37 37 36 35 36 36 37 38 40 41 42 42 44
26 20 17 15 14 17 20 21 23 24 25 26 27 29 30 33 35 36 37 35 32 30 30 30 30 31 33 35 37 38 39 41
24 23 19 16 14 17 21 22 24 26 27 28 29 31 33 33 35 37 35 30 25 23 22 22 21 22 23 24 26 27 29 33
33 29 23 20 16 17 22 25 25 27 29 30 31 33 34 32 35 35 30 24 20 18 16 13 11 12 15 14 15 17 20 23
32 30 31 23 19 19 23 25 27 28 28 30 33 28 28 32 33 30 24 20 18 15 12 10 9 11 13 15 16 20 23 23
34 33 42 26 26 23 24 24 25 26 29 28 24 25 27 30 29 25 20 19 17 14 16 16 15 13 13 15 17 20 24 31
29 34 31 41 26 19 25 22 24 28 27 26 23 24 26 27 25 21 18 18 17 17 18 18 15 13 14 15 17 21 24 27
30 31 35 33 26 25 21 25 27 24 26 21 22 23 24 24 21 18 16 16 17 18 17 15 13 12 14 15 17 20 22 25
30 31 27 20 28 26 23 25 22 23 20 20 20 21 21 19 17 15 14 15 16 15 15 13 13 13 14 16 17 20 21 24
26 22 24 27 27 24 25 24 20 21 21 18 19 19 18 16 14 14 14 14 14 14 13 12 12 13 14 15 16 18 20 21
24 21 23 26 25 23 22 21 21 19 17 17 17 16 16 14 13 13 12 13 14 12 12 12 12 13 14 14 16 18 19 21
24 25 20 22 24 23 23 19 16 17 16 16 15 15 13 11 10 11 12 12 13 12 11 13 12 13 14 15 16 18 19 20

GFSFLT1_700_spd_144.txt.gz
Wind_Speed
34 31 28 31 34 34 38 29 25 23 23 25 27 27 26 25 24 24 25 27 28 30 32 33 35 36 38 38 37 38 38 36
37 35 33 31 31 31 37 31 26 22 22 24 24 26 26 26 25 25 25 26 26 26 28 30 33 35 37 37 38 38 39 38
38 36 34 32 30 31 29 25 21 20 20 20 20 20 21 22 23 24 24 26 27 27 28 29 30 31 32 34 36 37 38 39
38 36 34 34 29 28 26 23 20 18 19 19 20 22 24 26 26 27 29 29 31 32 33 34 35 36 37 37 35 34 35 38
42 37 31 27 26 24 25 21 19 17 17 19 21 21 23 25 26 27 29 31 33 34 35 36 36 37 38 38 37 37 36 33
41 35 25 28 24 23 22 21 19 18 19 19 19 21 24 26 27 29 31 33 35 36 37 39 40 39 39 40 40 39 38 37
38 33 29 23 21 19 19 22 20 19 20 21 22 23 25 26 28 30 31 33 35 36 36 37 37 37 37 38 39 39 40 39
31 28 26 18 18 17 19 18 18 20 21 22 23 24 27 29 29 31 32 31 33 35 35 34 32 31 31 32 33 34 35 37
25 24 24 19 15 15 15 16 18 20 22 24 26 27 29 30 31 31 30 32 33 32 29 26 24 23 23 22 22 23 24 26
21 22 23 26 18 15 14 15 19 21 22 25 26 27 29 32 29 27 30 31 29 25 21 19 18 17 16 16 17 18 19 20
27 32 32 32 28 20 16 18 21 24 25 25 25 26 30 25 25 27 30 27 23 20 17 14 14 13 13 13 14 15 16 18
22 23 25 25 26 33 21 21 22 26 25 26 26 28 26 24 25 28 26 23 20 17 16 15 16 17 16 15 15 15 17 20
23 27 25 23 31 25 31 32 23 24 26 27 28 28 26 24 25 27 24 20 18 17 17 17 18 18 16 14 14 16 18 19
28 28 26 24 27 26 33 21 19 21 26 27 29 28 22 23 25 24 21 18 16 15 15 14 18 19 18 17 17 18 18 18
30 26 23 26 24 25 31 21 14 20 26 26 28 23 21 23 23 20 18 16 16 16 16 17 17 17 18 18 18 19 20 19
24 26 27 24 23 23 21 16 19 21 22 25 22 20 22 22 20 18 16 15 15 16 17 17 17 16 17 17 18 18 18 18
26 27 23 25 19 18 23 22 22 21 21 23 21 21 21 20 18 16 14 14 14 16 17 17 16 16 15 16 16 16 16 17
21 21 22 21 17 16 21 25 22 23 23 20 20 20 20 18 16 13 12 12 14 16 16 15 15 16 15 15 16 16 16 17
22 19 19 17 16 17 22 24 23 21 18 19 20 19 18 17 14 12 11 11 12 14 13 13 13 16 16 15 17 17 17 17